IMS-1

导读

IMS-1(Indian Mini Satellite-1)是印度空间研究组织(ISRO)开发的小型遥感卫星,于2008年4月28日作为PSLV-C9任务的辅助载荷发射升空。卫星起飞重量83千克,采用微型化子系统,搭载多光谱相机和超光谱相机两个有效载荷,工作在可见近红外波段,多光谱相机空间分辨率37米,超光谱相机分辨率约506米,设计寿命两年,数据将开放给发展中国家航天机构和学生,推动卫星数据应用能力建设。

基本信息
目录编号:
32786
目录名称:
IMS-1
国际标识:
2008-021D
轨道中心:
EARTH
卫星名称:
IMS-1
卫星全名:
--
卫星状态:
在轨 (已飞行6703 天)
发射日期:
2008-04-28 UTC
国别 :
印度 (IN)
星等 :
--
轨道信息
数据来源 国际轨道数据
星历时间: 2026-09-04T04:52:07+0800
21小时前
查看轨道信息
半长轴: 6929.851km
偏心率: 0.0004283
轨道倾角: 97.954°
近地点辐角 169.723°
升交点赤经 235.579°
平近点角 190.409°
近地点: 548.745km
远地点: 554.683km
周期: 95.685分钟
每日圈数: 15.049322
详细信息
使用方式:
暂无
2D轨道图
3D轨道图
轨道高度分析图
轨道倾角分析图
轨道综合分析图
查看轨道综合分析图
交会数据列表
事件ID 空间交会对象 最接近时刻(TCA) 交会距离 交会风险概率(CRP) 交会风险指数(CRI) 操作
CDM_260906-173103-278604-546222
IMS-1 (32786)
2026-09-06T
17:31:45+0000
1.216 km
极远距离
1.312879E-5 中风险 0.57
CDM_260902-175303-278604-302929
IMS-1 (32786)
2026-09-02T
17:53:28+0000
1.667 km
极远距离
3.856281E-6 低风险 0.47
CDM_260903-055103-278604-302928
IMS-1 (32786)
2026-09-03T
05:51:37+0000
1.785 km
极远距离
3.188944E-6 低风险 0.45
CDM_260906-171303-278604-367722
IMS-1 (32786)
TEN-KOH (43677)
2026-09-06T
17:13:10+0000
2.432 km
极远距离
1.830711E-6 低风险 0.4
CDM_260903-041503-278604-302928
IMS-1 (32786)
2026-09-03T
04:15:52+0000
2.242 km
极远距离
1.800588E-6 低风险 0.4
CDM_260903-072703-278604-302923
IMS-1 (32786)
2026-09-03T
07:27:23+0000
2.405 km
极远距离
1.567521E-6 低风险 0.39
CDM_260903-042903-278606-561326
IMS-1 (32786)
2026-09-03T
04:29:15+0000
2.452 km
极远距离
1.363349E-6 低风险 0.38
CDM_260902-161703-278604-302929
IMS-1 (32786)
2026-09-02T
16:17:43+0000
2.813 km
极远距离
1.202274E-6 低风险 0.37